Location: Ripley
(48.3812°N, 115.4473°W)
Time: 17:02:07
(UTC+00:00)

O/OREOS (USA 219) - Pass Details

Date: 30 June 2022
Orbit: 621 x 646 km, 72.0° (Epoch: 22 May)

Event Time Altitude Azimuth Distance (km) Brightness Sun altitude
Rises 06:49:54 0° 342° (NNW) 2,963 ? -17.4°
Reaches altitude 10° 06:52:40 10° 358° (N) 2,052 ? -17.5°
Maximum altitude 06:56:13 21° 48° (NE) 1,435 ? -17.6°
Drops below altitude 10° 06:59:46 10° 99° (E) 2,047 ? -17.7°
Enters shadow 07:00:25 - 104° (ESE) 2,247 ? -17.7°
